contact:dominique.lefevre@mio.osupytheas.fr, maurice.libes@osupytheas.fr, didier.mallarino@osupytheas.fr
Project:EMSO http://www.emso-fr.org/EMSO-France
Depth: 2436.0 m
Title:EMSO Ligure Ouest : Data MII capteur MICROCAT
DateTime_Computer,Latitude,Longitude,Temperature,Conductivity,Pressure,DateTime_Instrument
DateTime_Computer,Latitude,Longitude,degC,S m-1,dbar,DateTime_Instrument
2022-03-25T00:02:46Z,42.805,6.029,13.3033,4.60147,2470.544,2022-3-25T02:04:23Z
2022-03-25T00:05:50Z,42.805,6.029,13.3036,4.60081,2470.52,2022-3-25T02:07:26Z
2022-03-25T00:08:53Z,42.805,6.029,13.3015,4.60094,2470.544,2022-3-25T02:10:29Z
2022-03-25T00:11:56Z,42.805,6.029,13.3033,4.60092,2470.507,2022-3-25T02:13:32Z
2022-03-25T00:14:59Z,42.805,6.029,13.3030,4.60143,2470.53,2022-3-25T02:16:36Z
2022-03-25T00:18:02Z,42.805,6.029,13.3019,4.60110,2470.507,2022-3-25T02:19:39Z
2022-03-25T00:21:05Z,42.805,6.029,13.3034,4.60094,2470.52,2022-3-25T02:22:42Z
2022-03-25T00:24:08Z,42.805,6.029,13.3024,4.60072,2470.52,2022-3-25T02:25:45Z
2022-03-25T00:27:11Z,42.805,6.029,13.3038,4.60128,2470.483,2022-3-25T02:28:48Z
2022-03-25T00:30:15Z,42.805,6.029,13.3027,4.60132,2470.483,2022-3-25T02:31:51Z
2022-03-25T00:33:18Z,42.805,6.029,13.3019,4.60102,2470.544,2022-3-25T02:34:54Z
2022-03-25T00:36:21Z,42.805,6.029,13.3036,4.60122,2470.52,2022-3-25T02:37:57Z
2022-03-25T00:39:24Z,42.805,6.029,13.3040,4.60122,2470.52,2022-3-25T02:41:01Z
2022-03-25T00:42:27Z,42.805,6.029,13.3067,4.60106,2470.483,2022-3-25T02:44:04Z
2022-03-25T00:45:30Z,42.805,6.029,13.3066,4.60150,2470.507,2022-3-25T02:47:07Z
2022-03-25T00:48:33Z,42.805,6.029,13.3065,4.60099,2470.52,2022-3-25T02:50:10Z
2022-03-25T00:51:36Z,42.805,6.029,13.3069,4.60112,2470.497,2022-3-25T02:53:13Z
2022-03-25T00:54:40Z,42.805,6.029,13.3061,4.60149,2470.53,2022-3-25T02:56:16Z
2022-03-25T00:57:43Z,42.805,6.029,13.3078,4.60110,2470.507,2022-3-25T02:59:19Z
2022-03-25T01:00:46Z,42.805,6.029,13.3071,4.60097,2470.52,2022-3-25T03:02:22Z
2022-03-25T01:03:49Z,42.805,6.029,13.3042,4.60110,2470.52,2022-3-25T03:05:26Z
2022-03-25T01:06:52Z,42.805,6.029,13.3071,4.60110,2470.544,2022-3-25T03:08:29Z
2022-03-25T01:09:55Z,42.805,6.029,13.3092,4.60085,2470.52,2022-3-25T03:11:32Z
2022-03-25T01:12:58Z,42.805,6.029,13.3077,4.60119,2470.544,2022-3-25T03:14:35Z
2022-03-25T01:16:01Z,42.805,6.029,13.3045,4.60074,2470.483,2022-3-25T03:17:38Z
2022-03-25T01:19:05Z,42.805,6.029,13.3033,4.60108,2470.483,2022-3-25T03:20:41Z
2022-03-25T01:22:08Z,42.805,6.029,13.3063,4.60074,2470.52,2022-3-25T03:23:44Z
2022-03-25T01:25:11Z,42.805,6.029,13.3036,4.60093,2470.52,2022-3-25T03:26:47Z
2022-03-25T01:28:14Z,42.805,6.029,13.3042,4.60132,2470.52,2022-3-25T03:29:51Z
2022-03-25T01:31:17Z,42.805,6.029,13.3056,4.60081,2470.497,2022-3-25T03:32:54Z
2022-03-25T01:34:20Z,42.805,6.029,13.3039,4.60092,2470.52,2022-3-25T03:35:57Z
2022-03-25T01:37:23Z,42.805,6.029,13.3043,4.60099,2470.507,2022-3-25T03:39:00Z
2022-03-25T01:40:26Z,42.805,6.029,13.3030,4.60114,2470.52,2022-3-25T03:42:03Z
2022-03-25T01:43:30Z,42.805,6.029,13.3044,4.60129,2470.52,2022-3-25T03:45:06Z
2022-03-25T01:46:33Z,42.805,6.029,13.3070,4.60099,2470.52,2022-3-25T03:48:09Z
2022-03-25T01:49:36Z,42.805,6.029,13.3031,4.60092,2470.544,2022-3-25T03:51:12Z
2022-03-25T01:52:39Z,42.805,6.029,13.3048,4.60079,2470.507,2022-3-25T03:54:16Z
2022-03-25T01:55:42Z,42.805,6.029,13.3052,4.60092,2470.52,2022-3-25T03:57:19Z
2022-03-25T01:58:45Z,42.805,6.029,13.3060,4.60075,2470.52,2022-3-25T04:00:22Z
2022-03-25T02:01:48Z,42.805,6.029,13.3057,4.60104,2470.507,2022-3-25T04:03:25Z
2022-03-25T02:04:51Z,42.805,6.029,13.3070,4.60110,2470.507,2022-3-25T04:06:28Z
2022-03-25T02:07:54Z,42.805,6.029,13.3039,4.60113,2470.52,2022-3-25T04:09:31Z
2022-03-25T02:10:58Z,42.805,6.029,13.3029,4.60126,2470.483,2022-3-25T04:12:34Z
2022-03-25T02:14:01Z,42.805,6.029,13.3018,4.60096,2470.544,2022-3-25T04:15:37Z
2022-03-25T02:17:04Z,42.805,6.029,13.3034,4.60129,2470.507,2022-3-25T04:18:41Z
2022-03-25T02:20:07Z,42.805,6.029,13.3043,4.60091,2470.483,2022-3-25T04:21:44Z
2022-03-25T02:23:10Z,42.805,6.029,13.3054,4.60107,2470.52,2022-3-25T04:24:47Z
2022-03-25T02:26:13Z,42.805,6.029,13.3026,4.60107,2470.52,2022-3-25T04:27:50Z
2022-03-25T02:29:16Z,42.805,6.029,13.3039,4.60099,2470.507,2022-3-25T04:30:53Z
2022-03-25T02:32:19Z,42.805,6.029,13.3034,4.60125,2470.507,2022-3-25T04:33:56Z
2022-03-25T02:35:23Z,42.805,6.029,13.3033,4.60114,2470.544,2022-3-25T04:36:59Z
2022-03-25T02:38:26Z,42.805,6.029,13.3046,4.60074,2470.46,2022-3-25T04:40:02Z
2022-03-25T02:41:29Z,42.805,6.029,13.3036,4.60108,2470.53,2022-3-25T04:43:05Z
2022-03-25T02:44:32Z,42.805,6.029,13.3016,4.60120,2470.507,2022-3-25T04:46:09Z
2022-03-25T02:47:35Z,42.805,6.029,13.3026,4.60110,2470.507,2022-3-25T04:49:12Z
2022-03-25T02:50:38Z,42.805,6.029,13.3031,4.60113,2470.52,2022-3-25T04:52:15Z
2022-03-25T02:53:41Z,42.805,6.029,13.3020,4.60118,2470.483,2022-3-25T04:55:18Z
2022-03-25T02:56:44Z,42.805,6.029,13.3022,4.60080,2470.52,2022-3-25T04:58:21Z
2022-03-25T02:59:48Z,42.805,6.029,13.3024,4.60055,2470.507,2022-3-25T05:01:24Z
2022-03-25T03:02:51Z,42.805,6.029,13.3012,4.60061,2470.483,2022-3-25T05:04:27Z
2022-03-25T03:05:54Z,42.805,6.029,13.3014,4.60109,2470.507,2022-3-25T05:07:30Z
2022-03-25T03:08:57Z,42.805,6.029,13.3014,4.60131,2470.52,2022-3-25T05:10:34Z
2022-03-25T03:12:00Z,42.805,6.029,13.3012,4.60150,2470.52,2022-3-25T05:13:37Z
2022-03-25T03:15:03Z,42.805,6.029,13.3012,4.60120,2470.52,2022-3-25T05:16:40Z
2022-03-25T03:18:06Z,42.805,6.029,13.3021,4.60131,2470.507,2022-3-25T05:19:43Z
2022-03-25T03:21:09Z,42.805,6.029,13.3016,4.60133,2470.507,2022-3-25T05:22:46Z
2022-03-25T03:24:13Z,42.805,6.029,13.3024,4.60119,2470.53,2022-3-25T05:25:49Z
2022-03-25T03:27:16Z,42.805,6.029,13.3033,4.60093,2470.544,2022-3-25T05:28:52Z
2022-03-25T03:30:19Z,42.805,6.029,13.3015,4.60095,2470.483,2022-3-25T05:31:55Z
2022-03-25T03:33:22Z,42.805,6.029,13.3019,4.60157,2470.52,2022-3-25T05:34:59Z
2022-03-25T03:36:25Z,42.805,6.029,13.3023,4.60148,2470.52,2022-3-25T05:38:02Z
2022-03-25T03:39:28Z,42.805,6.029,13.3025,4.60116,2470.483,2022-3-25T05:41:05Z
2022-03-25T03:42:31Z,42.805,6.029,13.3027,4.60082,2470.53,2022-3-25T05:44:08Z
2022-03-25T03:45:34Z,42.805,6.029,13.3031,4.60100,2470.497,2022-3-25T05:47:11Z
2022-03-25T03:48:37Z,42.805,6.029,13.3018,4.60118,2470.52,2022-3-25T05:50:14Z
2022-03-25T03:51:41Z,42.805,6.029,13.3026,4.60110,2470.483,2022-3-25T05:53:17Z
2022-03-25T03:54:44Z,42.805,6.029,13.3030,4.60105,2470.507,2022-3-25T05:56:20Z
2022-03-25T03:57:47Z,42.805,6.029,13.3024,4.60075,2470.52,2022-3-25T05:59:24Z
2022-03-25T04:00:50Z,42.805,6.029,13.3026,4.60108,2470.507,2022-3-25T06:02:27Z
2022-03-25T04:03:53Z,42.805,6.029,13.3015,4.60127,2470.483,2022-3-25T06:05:30Z
2022-03-25T04:06:56Z,42.805,6.029,13.3031,4.60136,2470.52,2022-3-25T06:08:33Z
2022-03-25T04:09:59Z,42.805,6.029,13.3031,4.60150,2470.497,2022-3-25T06:11:36Z
2022-03-25T04:13:02Z,42.805,6.029,13.3027,4.60119,2470.483,2022-3-25T06:14:39Z
2022-03-25T04:16:06Z,42.805,6.029,13.3022,4.60131,2470.483,2022-3-25T06:17:42Z
2022-03-25T04:19:09Z,42.805,6.029,13.3034,4.60122,2470.497,2022-3-25T06:20:45Z
2022-03-25T04:22:12Z,42.805,6.029,13.3019,4.60131,2470.497,2022-3-25T06:23:49Z
2022-03-25T04:25:15Z,42.805,6.029,13.3030,4.60113,2470.483,2022-3-25T06:26:52Z
2022-03-25T04:28:18Z,42.805,6.029,13.3033,4.60126,2470.46,2022-3-25T06:29:55Z
2022-03-25T04:31:21Z,42.805,6.029,13.3015,4.60120,2470.52,2022-3-25T06:32:58Z
2022-03-25T04:34:24Z,42.805,6.029,13.3015,4.60125,2470.483,2022-3-25T06:36:01Z
2022-03-25T04:37:27Z,42.805,6.029,13.3016,4.60103,2470.497,2022-3-25T06:39:04Z
2022-03-25T04:40:31Z,42.805,6.029,13.3021,4.60119,2470.497,2022-3-25T06:42:07Z
2022-03-25T04:43:34Z,42.805,6.029,13.3018,4.60114,2470.46,2022-3-25T06:45:10Z
2022-03-25T04:46:37Z,42.805,6.029,13.3007,4.60100,2470.483,2022-3-25T06:48:13Z
2022-03-25T04:49:40Z,42.805,6.029,13.3009,4.60104,2470.474,2022-3-25T06:51:17Z
2022-03-25T04:52:43Z,42.805,6.029,13.3019,4.60099,2470.497,2022-3-25T06:54:20Z
2022-03-25T04:55:46Z,42.805,6.029,13.3014,4.60134,2470.46,2022-3-25T06:57:23Z
2022-03-25T04:58:49Z,42.805,6.029,13.3022,4.60105,2470.46,2022-3-25T07:00:26Z
2022-03-25T05:01:52Z,42.805,6.029,13.3038,4.60154,2470.497,2022-3-25T07:03:29Z
2022-03-25T05:04:56Z,42.805,6.029,13.3034,4.60134,2470.497,2022-3-25T07:06:32Z
2022-03-25T05:07:59Z,42.805,6.029,13.3016,4.60102,2470.483,2022-3-25T07:09:35Z
2022-03-25T05:11:02Z,42.805,6.029,13.3031,4.60105,2470.45,2022-3-25T07:12:38Z
2022-03-25T05:14:05Z,42.805,6.029,13.3043,4.60096,2470.437,2022-3-25T07:15:42Z
2022-03-25T05:17:08Z,42.805,6.029,13.3046,4.60105,2470.52,2022-3-25T07:18:45Z
2022-03-25T05:20:11Z,42.805,6.029,13.3029,4.60117,2470.46,2022-3-25T07:21:48Z
2022-03-25T05:23:14Z,42.805,6.029,13.3019,4.60131,2470.46,2022-3-25T07:24:51Z
2022-03-25T05:26:17Z,42.805,6.029,13.3023,4.60107,2470.46,2022-3-25T07:27:54Z
2022-03-25T05:29:20Z,42.805,6.029,13.3015,4.60135,2470.474,2022-3-25T07:30:57Z
2022-03-25T05:32:24Z,42.805,6.029,13.3026,4.60108,2470.45,2022-3-25T07:34:00Z
2022-03-25T05:35:27Z,42.805,6.029,13.3028,4.60102,2470.497,2022-3-25T07:37:03Z
2022-03-25T05:38:30Z,42.805,6.029,13.3012,4.60117,2470.474,2022-3-25T07:40:07Z
2022-03-25T05:41:33Z,42.805,6.029,13.3016,4.60126,2470.474,2022-3-25T07:43:10Z
2022-03-25T05:44:36Z,42.805,6.029,13.3014,4.60081,2470.45,2022-3-25T07:46:13Z
2022-03-25T05:47:39Z,42.805,6.029,13.3009,4.60100,2470.46,2022-3-25T07:49:16Z
2022-03-25T05:50:42Z,42.805,6.029,13.3018,4.60062,2470.437,2022-3-25T07:52:19Z
2022-03-25T05:53:46Z,42.805,6.029,13.3014,4.60093,2470.45,2022-3-25T07:55:22Z
2022-03-25T05:56:49Z,42.805,6.029,13.3015,4.60127,2470.474,2022-3-25T07:58:25Z
2022-03-25T05:59:52Z,42.805,6.029,13.3013,4.60127,2470.474,2022-3-25T08:01:28Z
2022-03-25T06:02:55Z,42.805,6.029,13.3009,4.60098,2470.437,2022-3-25T08:04:32Z
2022-03-25T06:05:58Z,42.805,6.029,13.3016,4.60163,2470.437,2022-3-25T08:07:35Z
2022-03-25T06:09:01Z,42.805,6.029,13.3021,4.60150,2470.413,2022-3-25T08:10:38Z
2022-03-25T06:12:04Z,42.805,6.029,13.3031,4.60129,2470.46,2022-3-25T08:13:41Z
2022-03-25T06:15:07Z,42.805,6.029,13.3028,4.60119,2470.413,2022-3-25T08:16:44Z
2022-03-25T06:18:10Z,42.805,6.029,13.3014,4.60105,2470.474,2022-3-25T08:19:47Z
2022-03-25T06:21:14Z,42.805,6.029,13.3029,4.60119,2470.427,2022-3-25T08:22:50Z
2022-03-25T06:24:17Z,42.805,6.029,13.3036,4.60118,2470.45,2022-3-25T08:25:53Z
2022-03-25T06:27:20Z,42.805,6.029,13.3017,4.60121,2470.437,2022-3-25T08:28:57Z
2022-03-25T06:30:23Z,42.805,6.029,13.3023,4.60135,2470.437,2022-3-25T08:32:00Z
2022-03-25T06:33:26Z,42.805,6.029,13.3019,4.60119,2470.437,2022-3-25T08:35:03Z
2022-03-25T06:36:29Z,42.805,6.029,13.3011,4.60097,2470.437,2022-3-25T08:38:06Z
2022-03-25T06:39:32Z,42.805,6.029,13.3015,4.60112,2470.46,2022-3-25T08:41:09Z
2022-03-25T06:42:35Z,42.805,6.029,13.3019,4.60157,2470.413,2022-3-25T08:44:12Z
2022-03-25T06:45:39Z,42.805,6.029,13.3016,4.60167,2470.427,2022-3-25T08:47:15Z
2022-03-25T06:48:42Z,42.805,6.029,13.3031,4.60133,2470.413,2022-3-25T08:50:18Z
2022-03-25T06:51:45Z,42.805,6.029,13.3031,4.60154,2470.404,2022-3-25T08:53:22Z
2022-03-25T06:54:48Z,42.805,6.029,13.3024,4.60068,2470.413,2022-3-25T08:56:25Z
2022-03-25T06:57:51Z,42.805,6.029,13.3032,4.60076,2470.427,2022-3-25T08:59:28Z
2022-03-25T07:00:54Z,42.805,6.029,13.3029,4.60097,2470.427,2022-3-25T09:02:31Z
2022-03-25T07:03:57Z,42.805,6.029,13.3019,4.60107,2470.427,2022-3-25T09:05:34Z
2022-03-25T07:07:00Z,42.805,6.029,13.3019,4.60123,2470.413,2022-3-25T09:08:37Z
2022-03-25T07:10:04Z,42.805,6.029,13.3026,4.60141,2470.366,2022-3-25T09:11:40Z
2022-03-25T07:13:07Z,42.805,6.029,13.3040,4.60119,2470.427,2022-3-25T09:14:43Z
2022-03-25T07:16:10Z,42.805,6.029,13.3039,4.60123,2470.404,2022-3-25T09:17:46Z
2022-03-25T07:19:13Z,42.805,6.029,13.3038,4.60084,2470.427,2022-3-25T09:20:50Z
2022-03-25T07:22:16Z,42.805,6.029,13.3009,4.60073,2470.437,2022-3-25T09:23:53Z
2022-03-25T07:25:19Z,42.805,6.029,13.3021,4.60111,2470.413,2022-3-25T09:26:56Z
2022-03-25T07:28:22Z,42.805,6.029,13.3033,4.60066,2470.45,2022-3-25T09:29:59Z
2022-03-25T07:31:25Z,42.805,6.029,13.3014,4.60094,2470.427,2022-3-25T09:33:02Z
2022-03-25T07:34:29Z,42.805,6.029,13.3044,4.60140,2470.427,2022-3-25T09:36:05Z
2022-03-25T07:37:32Z,42.805,6.029,13.3030,4.60123,2470.413,2022-3-25T09:39:08Z
2022-03-25T07:40:35Z,42.805,6.029,13.3029,4.60148,2470.413,2022-3-25T09:42:11Z
2022-03-25T07:43:38Z,42.805,6.029,13.3044,4.60114,2470.413,2022-3-25T09:45:15Z
2022-03-25T07:46:41Z,42.805,6.029,13.3084,4.60107,2470.437,2022-3-25T09:48:18Z
2022-03-25T07:49:44Z,42.805,6.029,13.3050,4.60126,2470.45,2022-3-25T09:51:21Z
2022-03-25T07:52:47Z,42.805,6.029,13.3036,4.60120,2470.427,2022-3-25T09:54:24Z
2022-03-25T07:55:50Z,42.805,6.029,13.3019,4.60147,2470.413,2022-3-25T09:57:27Z
2022-03-25T07:58:54Z,42.805,6.029,13.3031,4.60084,2470.413,2022-3-25T10:00:30Z
2022-03-25T08:01:57Z,42.805,6.029,13.3051,4.60062,2470.39,2022-3-25T10:03:33Z
2022-03-25T08:05:00Z,42.805,6.029,13.3024,4.60078,2470.427,2022-3-25T10:06:36Z
2022-03-25T08:08:03Z,42.805,6.029,13.3028,4.60099,2470.413,2022-3-25T10:09:40Z
2022-03-25T08:11:06Z,42.805,6.029,13.3035,4.60082,2470.427,2022-3-25T10:12:43Z
2022-03-25T08:14:09Z,42.805,6.029,13.3026,4.60076,2470.413,2022-3-25T10:15:46Z
2022-03-25T08:17:12Z,42.805,6.029,13.3047,4.60063,2470.427,2022-3-25T10:18:49Z
2022-03-25T08:20:15Z,42.805,6.029,13.3053,4.60098,2470.413,2022-3-25T10:21:52Z
2022-03-25T08:23:19Z,42.805,6.029,13.3054,4.60113,2470.437,2022-3-25T10:24:55Z
2022-03-25T08:26:22Z,42.805,6.029,13.3057,4.60107,2470.399,2022-3-25T10:27:58Z
2022-03-25T08:29:25Z,42.805,6.029,13.3059,4.60075,2470.427,2022-3-25T10:31:01Z
2022-03-25T08:32:28Z,42.805,6.029,13.3065,4.60099,2470.437,2022-3-25T10:34:05Z
2022-03-25T08:35:31Z,42.805,6.029,13.3061,4.60062,2470.45,2022-3-25T10:37:08Z
2022-03-25T08:38:34Z,42.805,6.029,13.3059,4.60068,2470.427,2022-3-25T10:40:11Z
2022-03-25T08:41:37Z,42.805,6.029,13.3069,4.60072,2470.45,2022-3-25T10:43:14Z
2022-03-25T08:44:40Z,42.805,6.029,13.3063,4.60087,2470.437,2022-3-25T10:46:17Z
2022-03-25T08:47:44Z,42.805,6.029,13.3078,4.60072,2470.437,2022-3-25T10:49:20Z
2022-03-25T08:50:47Z,42.805,6.029,13.3061,4.60113,2470.437,2022-3-25T10:52:23Z
2022-03-25T08:53:50Z,42.805,6.029,13.3055,4.60090,2470.427,2022-3-25T10:55:26Z
2022-03-25T08:56:53Z,42.805,6.029,13.3065,4.60072,2470.46,2022-3-25T10:58:30Z
2022-03-25T08:59:56Z,42.805,6.029,13.3054,4.60106,2470.45,2022-3-25T11:01:33Z
2022-03-25T09:02:59Z,42.805,6.029,13.3064,4.60106,2470.437,2022-3-25T11:04:36Z
2022-03-25T09:06:02Z,42.805,6.029,13.3070,4.60069,2470.45,2022-3-25T11:07:39Z
2022-03-25T09:09:05Z,42.805,6.029,13.3055,4.60108,2470.45,2022-3-25T11:10:42Z
2022-03-25T09:12:09Z,42.805,6.029,13.3045,4.60074,2470.45,2022-3-25T11:13:45Z
2022-03-25T09:15:12Z,42.805,6.029,13.3048,4.60069,2470.45,2022-3-25T11:16:48Z
2022-03-25T09:18:15Z,42.805,6.029,13.3041,4.60063,2470.46,2022-3-25T11:19:52Z
2022-03-25T09:21:18Z,42.805,6.029,13.3041,4.60089,2470.45,2022-3-25T11:22:55Z
2022-03-25T09:24:21Z,42.805,6.029,13.3035,4.60092,2470.474,2022-3-25T11:25:58Z
2022-03-25T09:27:24Z,42.805,6.029,13.3040,4.60141,2470.45,2022-3-25T11:29:01Z
2022-03-25T09:30:27Z,42.805,6.029,13.3039,4.60072,2470.474,2022-3-25T11:32:04Z
2022-03-25T09:33:30Z,42.805,6.029,13.3043,4.60072,2470.427,2022-3-25T11:35:07Z
2022-03-25T09:36:34Z,42.805,6.029,13.3046,4.60092,2470.474,2022-3-25T11:38:10Z
2022-03-25T09:39:37Z,42.805,6.029,13.3051,4.60127,2470.45,2022-3-25T11:41:13Z
2022-03-25T09:42:40Z,42.805,6.029,13.3048,4.60134,2470.46,2022-3-25T11:44:17Z
2022-03-25T09:45:43Z,42.805,6.029,13.3058,4.60137,2470.437,2022-3-25T11:47:20Z
2022-03-25T09:48:46Z,42.805,6.029,13.3068,4.60142,2470.437,2022-3-25T11:50:23Z
2022-03-25T09:51:49Z,42.805,6.029,13.3049,4.60143,2470.45,2022-3-25T11:53:26Z
2022-03-25T09:54:52Z,42.805,6.029,13.3066,4.60115,2470.474,2022-3-25T11:56:29Z
2022-03-25T09:57:55Z,42.805,6.029,13.3070,4.60092,2470.474,2022-3-25T11:59:32Z
2022-03-25T10:00:59Z,42.805,6.029,13.3073,4.60091,2470.497,2022-3-25T12:02:35Z
2022-03-25T10:04:02Z,42.805,6.029,13.3065,4.60093,2470.437,2022-3-25T12:05:38Z
2022-03-25T10:07:05Z,42.805,6.029,13.3075,4.60092,2470.437,2022-3-25T12:08:42Z
2022-03-25T10:10:08Z,42.805,6.029,13.3067,4.60089,2470.437,2022-3-25T12:11:45Z
2022-03-25T10:13:11Z,42.805,6.029,13.3079,4.60074,2470.497,2022-3-25T12:14:48Z
2022-03-25T10:16:14Z,42.805,6.029,13.3067,4.60095,2470.483,2022-3-25T12:17:51Z
2022-03-25T10:19:17Z,42.805,6.029,13.3063,4.60063,2470.483,2022-3-25T12:20:54Z
2022-03-25T10:22:21Z,42.805,6.029,13.3057,4.60072,2470.437,2022-3-25T12:23:57Z
2022-03-25T10:25:24Z,42.805,6.029,13.3064,4.60084,2470.474,2022-3-25T12:27:00Z
2022-03-25T10:28:27Z,42.805,6.029,13.3064,4.60074,2470.46,2022-3-25T12:30:03Z
2022-03-25T10:31:30Z,42.805,6.029,13.3055,4.60049,2470.474,2022-3-25T12:33:07Z
2022-03-25T10:34:33Z,42.805,6.029,13.3038,4.60045,2470.46,2022-3-25T12:36:10Z
2022-03-25T10:37:36Z,42.805,6.029,13.3051,4.60043,2470.483,2022-3-25T12:39:13Z
2022-03-25T10:40:39Z,42.805,6.029,13.3048,4.60044,2470.474,2022-3-25T12:42:16Z
2022-03-25T10:43:42Z,42.805,6.029,13.3028,4.60046,2470.483,2022-3-25T12:45:19Z
2022-03-25T10:46:45Z,42.805,6.029,13.3028,4.60047,2470.497,2022-3-25T12:48:22Z
2022-03-25T10:49:49Z,42.805,6.029,13.3029,4.60052,2470.497,2022-3-25T12:51:25Z
2022-03-25T10:52:52Z,42.805,6.029,13.3013,4.60049,2470.497,2022-3-25T12:54:28Z
2022-03-25T10:55:55Z,42.805,6.029,13.3008,4.60052,2470.474,2022-3-25T12:57:32Z
2022-03-25T10:58:58Z,42.805,6.029,13.3017,4.60060,2470.497,2022-3-25T13:00:35Z
2022-03-25T11:02:01Z,42.805,6.029,13.3024,4.60083,2470.483,2022-3-25T13:03:38Z
2022-03-25T11:05:04Z,42.805,6.029,13.3020,4.60077,2470.437,2022-3-25T13:06:41Z
2022-03-25T11:08:07Z,42.805,6.029,13.3030,4.60068,2470.474,2022-3-25T13:09:44Z
2022-03-25T11:11:11Z,42.805,6.029,13.3041,4.60080,2470.497,2022-3-25T13:12:47Z
2022-03-25T11:14:14Z,42.805,6.029,13.3050,4.60074,2470.437,2022-3-25T13:15:50Z
2022-03-25T11:17:17Z,42.805,6.029,13.3048,4.60080,2470.474,2022-3-25T13:18:53Z
2022-03-25T11:20:20Z,42.805,6.029,13.3056,4.60093,2470.497,2022-3-25T13:21:57Z
2022-03-25T11:23:23Z,42.805,6.029,13.3061,4.60102,2470.474,2022-3-25T13:25:00Z
2022-03-25T11:26:26Z,42.805,6.029,13.3054,4.60095,2470.497,2022-3-25T13:28:03Z
2022-03-25T11:29:29Z,42.805,6.029,13.3025,4.60097,2470.483,2022-3-25T13:31:06Z
2022-03-25T11:32:32Z,42.805,6.029,13.3022,4.60107,2470.46,2022-3-25T13:34:09Z
2022-03-25T11:35:35Z,42.805,6.029,13.3024,4.60102,2470.474,2022-3-25T13:37:12Z
2022-03-25T11:38:39Z,42.805,6.029,13.3023,4.60084,2470.46,2022-3-25T13:40:15Z
2022-03-25T11:41:42Z,42.805,6.029,13.3031,4.60073,2470.46,2022-3-25T13:43:18Z
2022-03-25T11:44:45Z,42.805,6.029,13.3082,4.60095,2470.474,2022-3-25T13:46:22Z
2022-03-25T11:47:48Z,42.805,6.029,13.3041,4.60119,2470.507,2022-3-25T13:49:25Z
2022-03-25T11:50:51Z,42.805,6.029,13.3040,4.60097,2470.46,2022-3-25T13:52:28Z
2022-03-25T11:53:54Z,42.805,6.029,13.3021,4.60093,2470.474,2022-3-25T13:55:31Z
2022-03-25T11:56:57Z,42.805,6.029,13.3014,4.60143,2470.46,2022-3-25T13:58:34Z
2022-03-25T12:00:01Z,42.805,6.029,13.3008,4.60141,2470.474,2022-3-25T14:01:37Z
2022-03-25T12:03:04Z,42.805,6.029,13.3006,4.60114,2470.474,2022-3-25T14:04:40Z
2022-03-25T12:06:07Z,42.805,6.029,13.3002,4.60105,2470.497,2022-3-25T14:07:43Z
2022-03-25T12:09:10Z,42.805,6.029,13.2995,4.60104,2470.474,2022-3-25T14:10:47Z
2022-03-25T12:12:13Z,42.805,6.029,13.3000,4.60105,2470.437,2022-3-25T14:13:50Z
2022-03-25T12:15:16Z,42.805,6.029,13.2998,4.60108,2470.483,2022-3-25T14:16:53Z
2022-03-25T12:18:19Z,42.805,6.029,13.2994,4.60110,2470.437,2022-3-25T14:19:56Z
2022-03-25T12:21:22Z,42.805,6.029,13.2996,4.60098,2470.483,2022-3-25T14:22:59Z
2022-03-25T12:24:26Z,42.805,6.029,13.3000,4.60095,2470.45,2022-3-25T14:26:02Z
2022-03-25T12:27:29Z,42.805,6.029,13.2998,4.60092,2470.46,2022-3-25T14:29:05Z
2022-03-25T12:30:32Z,42.805,6.029,13.2995,4.60099,2470.46,2022-3-25T14:32:09Z
2022-03-25T12:33:35Z,42.805,6.029,13.3000,4.60095,2470.413,2022-3-25T14:35:12Z
2022-03-25T12:36:38Z,42.805,6.029,13.2998,4.60117,2470.46,2022-3-25T14:38:15Z
2022-03-25T12:39:41Z,42.805,6.029,13.2998,4.60102,2470.413,2022-3-25T14:41:18Z
2022-03-25T12:42:44Z,42.805,6.029,13.2997,4.60095,2470.446,2022-3-25T14:44:21Z
2022-03-25T12:45:47Z,42.805,6.029,13.3000,4.60079,2470.474,2022-3-25T14:47:24Z
2022-03-25T12:48:51Z,42.805,6.029,13.2998,4.60069,2470.474,2022-3-25T14:50:27Z
2022-03-25T12:51:54Z,42.805,6.029,13.2998,4.60067,2470.483,2022-3-25T14:53:30Z
2022-03-25T12:54:57Z,42.805,6.029,13.2998,4.60104,2470.474,2022-3-25T14:56:34Z
2022-03-25T12:58:00Z,42.805,6.029,13.3030,4.60047,2470.437,2022-3-25T14:59:37Z
2022-03-25T13:01:03Z,42.805,6.029,13.2998,4.60092,2470.497,2022-3-25T15:02:40Z
2022-03-25T13:04:06Z,42.805,6.029,13.2998,4.60074,2470.46,2022-3-25T15:05:43Z
2022-03-25T13:07:09Z,42.805,6.029,13.2998,4.60102,2470.45,2022-3-25T15:08:46Z
2022-03-25T13:10:12Z,42.805,6.029,13.2998,4.60060,2470.437,2022-3-25T15:11:49Z
2022-03-25T13:13:16Z,42.805,6.029,13.2997,4.60062,2470.497,2022-3-25T15:14:52Z
2022-03-25T13:16:19Z,42.805,6.029,13.2998,4.60046,2470.483,2022-3-25T15:17:55Z
2022-03-25T13:19:22Z,42.805,6.029,13.2998,4.60043,2470.46,2022-3-25T15:20:59Z
2022-03-25T13:22:25Z,42.805,6.029,13.2996,4.60054,2470.483,2022-3-25T15:24:02Z
2022-03-25T13:25:28Z,42.805,6.029,13.2996,4.60070,2470.483,2022-3-25T15:27:05Z
2022-03-25T13:28:31Z,42.805,6.029,13.2996,4.60047,2470.483,2022-3-25T15:30:08Z
2022-03-25T13:31:34Z,42.805,6.029,13.3000,4.60043,2470.46,2022-3-25T15:33:11Z
2022-03-25T13:34:37Z,42.805,6.029,13.2993,4.60040,2470.483,2022-3-25T15:36:14Z
2022-03-25T13:37:41Z,42.805,6.029,13.2998,4.60049,2470.46,2022-3-25T15:39:17Z
2022-03-25T13:40:44Z,42.805,6.029,13.2998,4.60060,2470.413,2022-3-25T15:42:20Z
2022-03-25T13:43:47Z,42.805,6.029,13.2998,4.60059,2470.437,2022-3-25T15:45:24Z
2022-03-25T13:46:50Z,42.805,6.029,13.2996,4.60061,2470.437,2022-3-25T15:48:27Z
2022-03-25T13:49:53Z,42.805,6.029,13.2998,4.60037,2470.437,2022-3-25T15:51:30Z
2022-03-25T13:52:56Z,42.805,6.029,13.2998,4.60049,2470.46,2022-3-25T15:54:33Z
2022-03-25T13:55:59Z,42.805,6.029,13.2998,4.60052,2470.483,2022-3-25T15:57:36Z
2022-03-25T13:59:02Z,42.805,6.029,13.2996,4.60053,2470.474,2022-3-25T16:00:39Z
2022-03-25T14:02:06Z,42.805,6.029,13.2996,4.60041,2470.46,2022-3-25T16:03:42Z
2022-03-25T14:05:09Z,42.805,6.029,13.2993,4.60035,2470.46,2022-3-25T16:06:45Z
2022-03-25T14:08:12Z,42.805,6.029,13.3004,4.60035,2470.437,2022-3-25T16:09:49Z
2022-03-25T14:11:15Z,42.805,6.029,13.3004,4.60034,2470.437,2022-3-25T16:12:52Z
2022-03-25T14:14:18Z,42.805,6.029,13.3003,4.60033,2470.45,2022-3-25T16:15:55Z
2022-03-25T14:17:21Z,42.805,6.029,13.3004,4.60033,2470.46,2022-3-25T16:18:58Z
2022-03-25T14:20:24Z,42.805,6.029,13.3000,4.60044,2470.413,2022-3-25T16:22:01Z
2022-03-25T14:23:27Z,42.805,6.029,13.2997,4.60052,2470.413,2022-3-25T16:25:04Z
2022-03-25T14:26:31Z,42.805,6.029,13.2999,4.60036,2470.46,2022-3-25T16:28:07Z
2022-03-25T14:29:34Z,42.805,6.029,13.2999,4.60045,2470.413,2022-3-25T16:31:10Z
2022-03-25T14:32:37Z,42.805,6.029,13.3001,4.60035,2470.483,2022-3-25T16:34:14Z
2022-03-25T14:35:40Z,42.805,6.029,13.3000,4.60033,2470.45,2022-3-25T16:37:17Z
2022-03-25T14:38:43Z,42.805,6.029,13.2999,4.60039,2470.483,2022-3-25T16:40:20Z
2022-03-25T14:41:46Z,42.805,6.029,13.2998,4.60045,2470.474,2022-3-25T16:43:23Z
2022-03-25T14:44:49Z,42.805,6.029,13.3002,4.60054,2470.46,2022-3-25T16:46:26Z
2022-03-25T14:47:53Z,42.805,6.029,13.2998,4.60046,2470.446,2022-3-25T16:49:29Z
2022-03-25T14:50:56Z,42.805,6.029,13.2999,4.60038,2470.474,2022-3-25T16:52:32Z
2022-03-25T14:53:59Z,42.805,6.029,13.3003,4.60035,2470.474,2022-3-25T16:55:35Z
2022-03-25T14:57:02Z,42.805,6.029,13.3002,4.60043,2470.474,2022-3-25T16:58:39Z
2022-03-25T15:00:05Z,42.805,6.029,13.3000,4.60038,2470.46,2022-3-25T17:01:42Z
2022-03-25T15:03:08Z,42.805,6.029,13.2997,4.60047,2470.497,2022-3-25T17:04:45Z
2022-03-25T15:06:11Z,42.805,6.029,13.2995,4.60033,2470.474,2022-3-25T17:07:48Z
2022-03-25T15:09:14Z,42.805,6.029,13.2993,4.60031,2470.437,2022-3-25T17:10:51Z
2022-03-25T15:12:17Z,42.805,6.029,13.3002,4.60032,2470.437,2022-3-25T17:13:54Z
2022-03-25T15:15:21Z,42.805,6.029,13.3004,4.60032,2470.437,2022-3-25T17:16:57Z